INTELSAT 5 (IS-5) (24916 NORAD) Tracking and Keplerian Element Data

This shows tracking and keplerian element data for the satellite.

Feedback or suggestion? Click here.




ElementValue
Catalog24916
NameINTELSAT 5 (IS-5)
Epoch Orbit7665
Epoch Day200.74631914
Epoch Year2018
RAAN69.1698
Inclination4.3184
Eccentricity0.0003755
Argument of Perigee27.8823
Mean Anonmoly332.0921
Mean Motion1.00272288
Decay Rate7.3E-07
L11 24916U 97046A 18200.74631914 .00000073 00000-0 00000-0 0 9994
L22 24916 4.3184 69.1698 0003755 27.8823 332.0921 1.00272288 76657

Live tracking and technical data element details for INTELSAT 5 (IS-5) (NORAD 24916). INTELSAT 5 (IS-5) can be tracked NOW for your location showing map with azimuth and elevation plus other details from your city location.

Track the satellite on the map from your city or location and see movement details for azimuth, elevation, latitude, longitude, range, height, and movement on the map or in text.







IsCatalogInMostPopularTable: catalog: 24916, numindb: 45
Update: records affected: 1



GetName: 24916 INTELSAT 5 (IS-5)

Hit Count: updated at: Sat, 21 Jul 2018 07:48:09 GMT